Sanikiluaq Airport

Airport
ICAO code: 
CYSK
IATA Code: 
YSK
Summary
ICAO Region: 
NAM
Territory: 
Location: 
Sanikiluaq, Nunavut
Serving: 
Sanikiluaq
Elevation: 
104 ft
Coordinates: 
Aerial View: 
56° 32' 16.119" N, 79° 14' 47.761" W
Metar
Observation
CYSK 081500Z 18016KT 7SM -SN BKN020 M13/M15 A2983 RMK SC7 SLP108
Station
Sanikiluaq Airport
Date/Time
2021-12-08 15:00:00
Wind direction
180°
Wind speed
16 kts
Lowest cloud amount
broken clouds
Temperature
-13°C
Dew point
-15°C
Humidity
84%
Weather condition
light snow

Sanikiluaq Airport is located at Sanikiluaq, Nunavut, Canada, and is operated by the Government of Nunavut. It is one of the few airports in Nunavut that uses magnetic headings for the runway rather than true headings.

Runways

Designator Length Width Surface Rops
9/27 1158 0 UNK No/No
Airport map: 
Aerial View: 

Accidents and Serious Incidents at or in the vicinity of CYSK

SKYbrary Partners:

Safety knowledge contributed by: